Time,TemperatureF,DewpointF,PressureIn,WindDirection,WindDirectionDegrees,WindSpeedMPH,WindSpeedGustMPH,Humidity,HourlyPrecipIn,Conditions,Clouds,dailyrainin,SolarRadiationWatts/m^2,SoftwareType,DateUTC
2013-05-25 00:01:00,78.0,44.0,-100.00,WSW,247,0.0,10.0,30,0.00,,,0.00,0.000000,,2013-05-25 07:01:00,
2013-05-25 00:32:00,77.0,45.0,-100.00,East,81,0.0,11.0,32,0.00,,,0.00,0.000000,,2013-05-25 07:32:00,
2013-05-25 00:42:00,77.0,45.0,-100.00,East,81,0.0,11.0,32,0.00,,,0.00,0.000000,,2013-05-25 07:42:00,
2013-05-25 00:52:00,77.0,45.0,-100.00,East,81,0.0,11.0,32,0.00,,,0.00,0.000000,,2013-05-25 07:52:00,
2013-05-25 01:02:00,77.0,45.0,-100.00,East,81,0.0,11.0,32,0.00,,,0.00,0.000000,,2013-05-25 08:02:00,
2013-05-25 01:32:00,71.0,41.0,-100.00,East,87,3.0,3.0,34,0.00,,,0.00,0.000000,,2013-05-25 08:32:00,
2013-05-25 01:42:00,71.0,41.0,-100.00,East,87,3.0,3.0,34,0.00,,,0.00,0.000000,,2013-05-25 08:42:00,
2013-05-25 01:52:00,71.0,41.0,-100.00,East,87,3.0,3.0,34,0.00,,,0.00,0.000000,,2013-05-25 08:52:00,
2013-05-25 02:33:00,72.0,55.0,-100.00,ESE,117,3.0,6.0,56,0.00,,,0.00,0.000000,,2013-05-25 09:33:00,
2013-05-25 02:43:00,72.0,55.0,-100.00,ESE,117,3.0,6.0,56,0.00,,,0.00,0.000000,,2013-05-25 09:43:00,
2013-05-25 02:53:00,72.0,55.0,-100.00,ESE,117,3.0,6.0,56,0.00,,,0.00,0.000000,,2013-05-25 09:53:00,
2013-05-25 03:02:00,72.0,55.0,-100.00,ESE,117,3.0,6.0,56,0.00,,,0.00,0.000000,,2013-05-25 10:02:00,
2013-05-25 03:33:00,71.0,60.0,-100.00,NE,38,3.0,6.0,68,0.00,,,0.00,0.000000,,2013-05-25 10:33:00,
2013-05-25 04:32:00,67.0,58.0,-100.00,SE,146,0.0,6.0,73,0.00,,,0.00,0.000000,,2013-05-25 11:32:00,
2013-05-25 05:32:00,65.0,56.0,-100.00,ESE,102,0.0,4.0,72,0.00,,,0.00,0.000000,,2013-05-25 12:32:00,
2013-05-25 06:32:00,63.0,44.0,-100.00,NE,45,1.0,2.0,50,0.00,,,0.00,0.000000,,2013-05-25 13:32:00,
2013-05-25 06:42:00,63.0,44.0,-100.00,NE,45,1.0,2.0,50,0.00,,,0.00,0.000000,,2013-05-25 13:42:00,
2013-05-25 06:52:00,63.0,44.0,-100.00,NE,45,1.0,2.0,50,0.00,,,0.00,0.000000,,2013-05-25 13:52:00,
2013-05-25 07:02:00,63.0,44.0,-100.00,NE,45,1.0,2.0,50,0.00,,,0.00,0.000000,,2013-05-25 14:02:00,
2013-05-25 07:32:00,65.0,22.0,-100.00,NNE,23,0.0,3.0,19,0.00,,,0.00,23.000000,,2013-05-25 14:32:00,
2013-05-25 08:33:00,72.0,17.0,-100.00,NNE,25,4.0,4.0,12,0.00,,,0.00,177.000000,,2013-05-25 15:33:00,
2013-05-25 09:33:00,78.0,9.0,-100.00,NNW,340,7.0,7.0,7,0.00,,,0.00,472.000000,,2013-05-25 16:33:00,
2013-05-25 10:33:00,83.0,0.0,-100.00,North,355,5.0,11.0,4,0.00,,,0.00,742.000000,,2013-05-25 17:33:00,
2013-05-25 11:32:00,88.0,-2.0,-100.00,NW,310,3.0,10.0,3,0.00,,,0.00,974.000000,,2013-05-25 18:32:00,
2013-05-25 12:32:00,92.0,6.0,-100.00,SW,215,4.0,9.0,4,0.00,,,0.00,1157.000000,,2013-05-25 19:32:00,
2013-05-25 13:32:00,93.0,7.0,-100.00,SW,215,2.0,10.0,4,0.00,,,0.00,1267.000000,,2013-05-25 20:32:00,
2013-05-25 14:33:00,96.0,14.0,-100.00,SSE,164,5.0,9.0,5,0.00,,,0.00,1302.000000,,2013-05-25 21:33:00,
2013-05-25 15:33:00,97.0,15.0,-100.00,South,178,4.0,11.0,5,0.00,,,0.00,1262.000000,,2013-05-25 22:33:00,
2013-05-25 16:32:00,100.0,25.0,-100.00,SSE,160,6.0,14.0,7,0.00,,,0.00,1144.000000,,2013-05-25 23:32:00,
2013-05-25 16:42:00,100.0,25.0,-100.00,SSE,160,6.0,14.0,7,0.00,,,0.00,1144.000000,,2013-05-25 23:42:00,
2013-05-25 16:52:00,100.0,25.0,-100.00,SSE,160,6.0,14.0,7,0.00,,,0.00,1144.000000,,2013-05-25 23:52:00,
2013-05-25 17:01:00,100.0,25.0,-100.00,SSE,160,6.0,14.0,7,0.00,,,0.00,1144.000000,,2013-05-26 00:01:00,
2013-05-25 18:32:00,98.0,23.0,-100.00,WSW,253,5.0,15.0,7,-99.99,,,0.00,663.000000,,2013-05-26 01:32:00,
2013-05-25 19:32:00,98.0,27.0,-100.00,WSW,253,1.0,12.0,8,0.00,,,0.00,384.000000,,2013-05-26 02:32:00,
2013-05-25 19:42:00,98.0,27.0,-100.00,WSW,253,1.0,12.0,8,0.00,,,0.00,384.000000,,2013-05-26 02:42:00,
2013-05-25 19:52:00,98.0,27.0,-100.00,WSW,253,1.0,12.0,8,0.00,,,0.00,384.000000,,2013-05-26 02:52:00,
2013-05-25 20:01:00,98.0,27.0,-100.00,WSW,253,1.0,12.0,8,0.00,,,0.00,384.000000,,2013-05-26 03:01:00,
2013-05-25 20:33:00,94.0,36.0,-100.00,WSW,237,10.0,11.0,13,-99.99,,,0.00,157.000000,,2013-05-26 03:33:00,
2013-05-25 20:43:00,94.0,36.0,-100.00,WSW,237,10.0,11.0,13,-99.99,,,0.00,157.000000,,2013-05-26 03:43:00,
2013-05-25 20:53:00,94.0,36.0,-100.00,WSW,237,10.0,11.0,13,-99.99,,,0.00,157.000000,,2013-05-26 03:53:00,
2013-05-25 21:33:00,90.0,28.0,-100.00,WSW,258,9.0,16.0,11,-99.99,,,0.00,17.000000,,2013-05-26 04:33:00,
2013-05-25 22:32:00,86.0,31.0,-100.00,WSW,258,3.0,14.0,14,-99.99,,,0.00,0.000000,,2013-05-26 05:32:00,
2013-05-25 23:32:00,82.0,30.0,-100.00,WNW,298,4.0,11.0,15,-99.99,,,0.00,0.000000,,2013-05-26 06:32:00,
2013-05-25 23:42:00,82.0,30.0,-100.00,WNW,298,4.0,11.0,15,-99.99,,,0.00,0.000000,,2013-05-26 06:42:00,
2013-05-25 23:52:00,82.0,30.0,-100.00,WNW,298,4.0,11.0,15,-99.99,,,0.00,0.000000,,2013-05-26 06:52:00,